This demonstration page uses our WeatherBlox Daily Observations layout. Learn more.

Left ArrowRight Arrow

Hourly Observations for December 1, 2022

Temp ( °F °C ) Dew Point ( °F °C ) Humidity (%) Winds ( mph kmh ) Pressure ( in mb ) Visibility ( mi km ) Precip ( " mm )
12:15 am 00:15 Clear 26 -3.1 17 -8.3 67 67 S 18 30 30.25 1024 10 16 0.00 0.00
12:35 am 00:35 Clear 26 -3.2 17 -8.1 69 69 S 20 31 30.25 1024 10 16 0.00 0.00
12:55 am 00:55 Clear 26 -3.6 17 -8.1 71 71 SSE 15 24 30.23 1024 10 16 0.00 0.00
1:15 am 01:15 Clear 25 -3.9 18 -8 73 73 S 17 28 30.22 1023 10 16 0.00 0.00
1:35 am 01:35 Clear 25 -4.1 18 -8 74 74 SSE 20 31 30.21 1023 10 16 0.00 0.00
1:55 am 01:55 Clear 24 -4.5 17 -8.2 75 75 SSE 21 33 30.19 1022 10 16 0.00 0.00
2:15 am 02:15 Clear 24 -4.5 17 -8.2 75 75 S 17 28 30.18 1022 10 16 0.00 0.00
2:35 am 02:35 Clear 25 -4.1 17 -8.1 74 74 S 20 31 30.18 1022 10 16 0.00 0.00
2:55 am 02:55 Clear 24 -4.2 17 -8.1 74 74 S 16 26 30.18 1022 10 16 0.00 0.00
3:15 am 03:15 Clear 24 -4.3 17 -8.1 75 75 S 22 35 30.16 1021 10 16 0.00 0.00
3:35 am 03:35 Clear 24 -4.3 17 -8.1 75 75 S 17 28 30.15 1021 10 16 0.00 0.00
3:55 am 03:55 Clear 25 -4 18 -8 74 74 S 22 35 30.12 1020 10 16 0.00 0.00
4:15 am 04:15 Clear 25 -4 17 -8.1 73 73 S 18 30 30.12 1020 10 16 0.00 0.00
4:35 am 04:35 Clear 25 -4 17 -8.1 73 73 S 18 30 30.11 1020 10 16 0.00 0.00
4:55 am 04:55 Clear 25 -4.1 17 -8.2 73 73 S 20 31 30.09 1019 10 16 0.00 0.00
5:15 am 05:15 Clear 25 -4.1 17 -8.2 73 73 S 18 30 30.09 1019 10 16 0.00 0.00
5:35 am 05:35 Clear 25 -4.1 17 -8.2 73 73 S 18 30 30.08 1018 10 16 0.00 0.00
5:55 am 05:55 Clear 25 -4 17 -8.4 71 71 S 17 28 30.07 1018 10 16 0.00 0.00
6:15 am 06:15 Clear 26 -3.4 17 -8.4 68 68 S 17 28 30.07 1018 10 16 0.00 0.00
6:35 am 06:35 Clear 25 -3.9 17 -8.5 70 70 S 16 26 30.06 1018 10 16 0.00 0.00
6:55 am 06:55 Clear 25 -4.1 17 -8.3 72 72 S 9 15 30.08 1018 10 16 0.00 0.00
7:15 am 07:15 Clear 26 -3.6 18 -8 71 71 S 16 26 30.05 1018 10 16 0.00 0.00
7:35 am 07:35 Clear 27 -3 18 -7.8 69 69 S 12 19 30.05 1018 10 16 0.00 0.00
7:55 am 07:55 Sunny 27 -2.7 18 -7.7 68 68 S 15 24 30.05 1018 10 16 0.00 0.00
8:15 am 08:15 Sunny 28 -2 19 -7.5 66 66 S 13 20 30.05 1018 10 16 0.00 0.00
8:35 am 08:35 Sunny 29 -1.5 19 -7.3 65 65 S 15 24 30.05 1018 10 16 0.00 0.00
8:55 am 08:55 Sunny 30 -1.1 19 -7.1 64 64 S 15 24 30.03 1017 10 16 0.00 0.00
9:15 am 09:15 Sunny 31 -0.3 20 -6.9 61 61 SSW 13 20 30.03 1017 10 16 0.00 0.00
9:35 am 09:35 Sunny 33 0.4 20 -6.6 59 59 SSW 16 26 30.02 1017 10 16 0.00 0.00
9:55 am 09:55 Sunny 34 1.1 20 -6.5 57 57 SSW 22 35 30.01 1016 10 16 0.00 0.00
10:15 am 10:15 Sunny 35 1.8 21 -6.2 55 55 SSW 18 30 30.00 1016 10 16 0.00 0.00
10:35 am 10:35 Sunny 37 2.7 22 -5.7 54 54 SSW 17 28 29.99 1016 10 16 0.00 0.00
10:55 am 10:55 Sunny 38 3.2 22 -5.5 53 53 SSW 18 30 29.98 1015 10 16 0.00 0.00
11:15 am 11:15 Sunny 39 4.1 22 -5.3 50 50 SSW 18 30 29.97 1015 10 16 0.00 0.00
11:35 am 11:35 Sunny 41 4.9 23 -5 49 49 SSW 18 30 29.95 1014 10 16 0.00 0.00
11:55 am 11:55 Sunny 42 5.6 23 -4.9 47 47 SW 17 28 29.94 1014 10 16 0.00 0.00
12:15 pm 12:15 Sunny 43 6.3 23 -4.8 45 45 SSW 15 24 29.93 1013 10 16 0.00 0.00
12:35 pm 12:35 Sunny 44 6.8 23 -4.8 43 43 SSW 17 28 29.90 1013 10 16 0.00 0.00
12:55 pm 12:55 Sunny 46 7.8 24 -4.6 41 41 SSW 17 28 29.88 1012 10 16 0.00 0.00
1:15 pm 13:15 Sunny 47 8.3 24 -4.5 40 40 SSW 16 26 29.87 1011 10 16 0.00 0.00
1:35 pm 13:35 Sunny 48 8.7 24 -4.6 39 39 S 16 26 29.85 1011 10 16 0.00 0.00
1:55 pm 13:55 Sunny 49 9.3 24 -4.5 37 37 S 14 22 29.84 1010 10 16 0.00 0.00
2:15 pm 14:15 Sunny 50 10.2 24 -4.4 35 35 S 17 28 29.83 1010 10 16 0.00 0.00
2:35 pm 14:35 Sunny 51 10.3 24 -4.6 35 35 S 16 26 29.82 1010 10 16 0.00 0.00
2:55 pm 14:55 Sunny 51 10.5 24 -4.5 34 34 S 16 26 29.81 1009 10 16 0.00 0.00
3:15 pm 15:15 Sunny 51 10.7 24 -4.5 34 34 S 18 30 29.80 1009 10 16 0.00 0.00
3:35 pm 15:35 Sunny 51 10.7 24 -4.5 34 34 S 17 28 29.79 1009 10 16 0.00 0.00
3:55 pm 15:55 Sunny 51 10.7 24 -4.3 35 35 S 14 22 29.79 1009 10 16 0.00 0.00
4:15 pm 16:15 Sunny 51 10.3 24 -4.3 35 35 S 16 26 29.78 1008 10 16 0.00 0.00
4:35 pm 16:35 Sunny 49 9.6 24 -4.3 37 37 SSE 12 19 29.78 1008 10 16 0.00 0.00
4:55 pm 16:55 Sunny 46 7.7 24 -4.5 42 42 SSE 10 17 29.79 1009 10 16 0.00 0.00
5:15 pm 17:15 Clear 43 6.3 24 -4.7 45 45 SSE 8 13 29.81 1009 10 16 0.00 0.00
5:35 pm 17:35 Clear 40 4.5 23 -5 50 50 SSE 9 15 29.81 1010 10 16 0.00 0.00
5:55 pm 17:55 Clear 40 4.3 23 -4.9 51 51 SSE 14 22 29.81 1010 10 16 0.00 0.00
6:15 pm 18:15 Clear 39 4 23 -4.8 53 53 S 9 15 29.83 1010 10 16 0.00 0.00
6:35 pm 18:35 Clear 39 3.7 23 -4.8 54 54 S 12 19 29.83 1010 10 16 0.00 0.00
6:55 pm 18:55 Clear 39 3.7 23 -4.9 53 53 SSE 14 22 29.82 1010 10 16 0.00 0.00
7:15 pm 19:15 Clear 37 2.7 23 -5.1 56 56 S 14 22 29.83 1010 10 16 0.00 0.00
7:35 pm 19:35 Clear 38 3.4 24 -4.7 55 55 SSE 12 19 29.82 1010 10 16 0.00 0.00
7:55 pm 19:55 Clear 38 3.4 24 -4.6 56 56 SSE 12 19 29.81 1010 10 16 0.00 0.00
8:15 pm 20:15 Clear 39 3.7 24 -4.2 56 56 SSE 12 19 29.80 1009 10 16 0.00 0.00
8:35 pm 20:35 Clear 39 4.1 24 -4.2 55 55 S 14 22 29.78 1008 10 16 0.00 0.00
8:55 pm 20:55 Clear 40 4.5 25 -4.1 54 54 S 17 28 29.77 1008 10 16 0.00 0.00
9:15 pm 21:15 Clear 41 4.9 25 -3.9 53 53 SSE 16 26 29.76 1008 10 16 0.00 0.00
9:35 pm 21:35 Clear 40 4.6 25 -4 54 54 SSE 18 30 29.75 1007 10 16 0.00 0.00
9:55 pm 21:55 Clear 40 4.3 25 -3.8 56 56 SSE 18 30 29.74 1007 10 16 0.00 0.00
10:15 pm 22:15 Clear 39 4 26 -3.6 58 58 S 21 33 29.75 1007 10 16 0.00 0.00
10:35 pm 22:35 Clear 39 3.7 26 -3.5 59 59 S 20 31 29.74 1007 10 16 0.00 0.00
10:55 pm 22:55 Clear 38 3.5 26 -3.2 61 61 S 21 33 29.73 1007 10 16 0.00 0.00
11:15 pm 23:15 Clear 38 3.5 26 -3.1 62 62 S 21 33 29.72 1006 10 16 0.00 0.00
11:35 pm 23:35 Clear 38 3.5 27 -3 62 62 S 22 35 29.72 1006 10 16 0.00 0.00
11:55 pm 23:55 Clear 38 3.5 27 -2.8 63 63 S 21 33 29.71 1006 10 16 0.00 0.00

Powered by AerisWeather